Total_Precipitation_Accumulation
0.53 0.36 0.36 0.34 0.28 0.24 0.24 0.31 0.39 0.33 0.29 0.29 0.33 0.35 0.31 0.27 0.26 0.25 0.28 0.27 0.29 0.35 0.43 0.51 0.53 0.57 0.62 0.61 0.49 0.36 0.30 0.28 0.26 0.26 0.32 0.39 0.47 0.51 0.57 0.54 0.60 0.58 0.70
0.39 0.34 0.35 0.32 0.30 0.30 0.30 0.36 0.32 0.27 0.26 0.26 0.28 0.34 0.32 0.28 0.26 0.28 0.31 0.36 0.38 0.42 0.42 0.45 0.49 0.56 0.53 0.46 0.39 0.32 0.26 0.24 0.27 0.35 0.41 0.49 0.67 0.73 0.77 0.70 0.74 0.83 0.72
0.29 0.33 0.36 0.36 0.34 0.33 0.30 0.31 0.26 0.25 0.27 0.30 0.30 0.35 0.39 0.31 0.28 0.28 0.31 0.41 0.51 0.52 0.47 0.44 0.45 0.48 0.49 0.38 0.31 0.30 0.31 0.33 0.39 0.49 0.74 0.82 0.86 0.95 0.99 0.90 0.84 0.73 0.61
0.27 0.33 0.33 0.35 0.37 0.35 0.31 0.31 0.28 0.29 0.31 0.36 0.39 0.42 0.47 0.38 0.33 0.35 0.38 0.43 0.54 0.56 0.50 0.45 0.43 0.45 0.45 0.37 0.32 0.32 0.38 0.48 0.56 0.71 1.07 1.04 0.92 1.09 1.06 0.97 0.91 0.83 0.75
0.31 0.33 0.32 0.31 0.37 0.42 0.42 0.41 0.39 0.37 0.40 0.44 0.49 0.55 0.59 0.52 0.44 0.45 0.45 0.46 0.55 0.58 0.58 0.53 0.47 0.46 0.45 0.41 0.38 0.39 0.42 0.54 0.75 0.98 1.34 1.52 1.50 1.44 1.16 1.00 0.95 0.93 0.94
0.39 0.42 0.35 0.36 0.40 0.54 0.55 0.51 0.49 0.47 0.49 0.55 0.59 0.60 0.65 0.59 0.55 0.59 0.62 0.61 0.65 0.66 0.66 0.65 0.65 0.58 0.49 0.54 0.46 0.47 0.52 0.68 0.80 1.07 1.43 1.77 1.77 1.70 1.37 1.14 1.02 1.07 1.07
0.58 0.55 0.48 0.46 0.47 0.59 0.58 0.56 0.53 0.53 0.54 0.63 0.66 0.64 0.66 0.62 0.57 0.65 0.78 0.79 0.84 0.87 0.75 0.68 0.70 0.68 0.59 0.65 0.62 0.55 0.65 0.86 0.90 1.14 1.45 1.59 1.75 1.72 1.57 1.42 1.20 1.06 1.04
0.66 0.60 0.51 0.49 0.51 0.63 0.68 0.63 0.59 0.56 0.60 0.73 0.76 0.71 0.66 0.65 0.66 0.73 0.83 0.91 0.99 0.97 0.81 0.76 0.73 0.69 0.73 0.70 0.65 0.64 0.72 0.84 0.75 0.97 1.32 1.50 1.44 1.50 1.70 1.64 1.39 1.18 1.07
0.72 0.72 0.68 0.69 0.68 0.68 0.69 0.73 0.77 0.68 0.73 0.82 0.82 0.84 0.75 0.73 0.85 0.93 0.92 0.96 1.01 1.00 0.88 0.82 0.82 0.72 0.75 0.75 0.67 0.68 0.73 0.79 0.71 0.93 1.18 1.63 1.39 1.53 1.80 1.66 1.44 1.31 1.17
1.30 1.36 1.19 1.11 0.99 0.82 0.73 0.72 0.74 0.76 0.88 0.99 0.91 0.86 0.85 0.85 0.93 1.04 1.01 1.00 0.95 0.88 0.87 0.85 0.88 0.84 0.77 0.70 0.64 0.66 0.71 0.64 0.57 0.77 1.30 1.52 1.50 1.80 1.98 1.81 1.58 1.45 1.35
1.92 2.06 1.76 1.35 1.13 1.10 0.96 0.81 0.87 0.85 0.88 0.95 0.95 0.92 0.98 1.20 1.33 1.36 1.20 1.25 1.13 1.00 0.98 0.99 0.92 0.86 0.78 0.70 0.75 0.81 0.76 0.57 0.72 0.97 1.26 1.52 1.71 2.03 2.19 1.98 1.75 1.62 1.51
2.27 2.29 2.03 1.55 1.62 1.73 1.35 1.22 1.17 1.07 1.04 1.03 1.16 1.16 1.25 1.66 1.75 1.49 1.52 1.45 1.44 1.32 1.24 1.23 1.18 1.04 0.89 0.82 0.97 0.99 0.73 0.70 0.98 1.19 1.39 1.76 2.03 2.24 2.22 1.99 1.82 1.74 1.72
2.47 2.08 1.73 1.65 1.66 1.79 1.72 1.62 1.57 1.55 1.60 1.61 1.66 1.67 1.83 1.90 1.74 1.56 1.75 1.68 1.71 1.65 1.62 1.69 1.52 1.30 1.21 1.20 1.21 1.10 0.96 1.00 1.17 1.28 1.51 1.88 2.11 2.30 2.36 2.14 1.92 1.86 1.90
2.38 2.14 2.03 2.02 1.92 1.96 2.25 2.21 2.09 2.08 2.02 1.92 1.94 1.89 2.16 2.30 2.18 2.15 2.17 2.08 2.20 2.25 2.28 2.07 1.86 1.63 1.51 1.36 1.25 1.21 1.24 1.25 1.36 1.51 1.79 1.91 1.98 2.09 2.23 2.25 2.17 2.10 2.05
2.58 2.36 2.27 2.34 2.28 2.26 2.61 2.80 2.57 2.50 2.33 2.19 2.15 2.18 2.29 2.37 2.41 2.54 2.52 2.64 2.54 2.42 2.33 2.21 1.91 1.87 1.74 1.57 1.44 1.32 1.42 1.54 1.60 1.79 1.88 1.96 1.90 1.92 2.14 2.35 2.43 2.44 2.31
2.88 2.62 2.45 2.48 2.38 2.37 2.54 2.75 2.80 2.70 2.70 2.59 2.46 2.40 2.41 2.51 2.67 2.71 2.77 2.75 2.58 2.38 2.40 2.40 2.23 2.18 2.05 1.89 1.68 1.64 1.64 1.64 1.74 1.81 1.92 2.09 1.82 1.72 1.97 2.29 2.52 2.60 2.68
3.13 3.11 2.95 2.87 2.93 2.80 2.74 2.78 2.73 2.74 2.92 2.86 2.84 2.86 2.69 2.60 2.69 2.77 2.90 2.86 2.74 2.64 2.59 2.52 2.49 2.43 2.27 2.13 2.02 1.97 1.92 1.82 1.74 1.79 1.99 2.15 2.07 1.98 2.05 2.16 2.32 2.48 2.66
3.70 3.62 3.19 2.86 3.09 3.10 3.11 3.14 3.17 3.10 3.20 3.14 2.93 3.00 2.91 2.91 2.85 2.85 2.82 2.71 2.66 2.62 2.78 2.84 2.74 2.71 2.57 2.46 2.39 2.16 2.08 2.06 1.89 1.86 1.93 2.02 2.28 2.33 2.30 2.15 2.12 2.24 2.42
4.32 4.07 3.44 3.09 3.16 3.29 3.25 3.42 3.64 3.74 3.70 3.52 3.34 3.32 3.16 3.20 3.14 3.10 3.20 3.14 3.00 3.03 3.02 2.81 2.86 2.93 2.96 2.86 2.52 2.34 2.16 2.14 2.06 1.92 1.94 1.91 2.11 2.34 2.34 2.23 2.17 2.15 2.27
4.45 4.31 3.83 3.51 3.66 3.61 3.50 3.64 3.81 3.88 3.88 3.94 3.96 3.90 3.69 3.57 3.62 3.74 3.81 3.74 3.51 3.40 3.34 3.37 3.33 3.05 2.89 2.83 2.53 2.44 2.27 2.08 2.03 1.95 1.86 1.86 1.89 1.86 1.99 2.02 2.11 2.07 2.09
3.67 3.74 3.88 3.84 3.88 3.90 3.82 3.84 4.04 4.20 4.22 4.20 4.33 4.38 4.21 4.10 4.17 4.41 4.44 4.35 4.07 3.78 3.58 3.50 3.43 3.21 2.93 2.75 2.74 2.58 2.29 2.04 2.00 1.92 1.87 1.85 1.70 1.63 1.77 1.96 1.93 1.85 1.85
3.43 3.59 3.72 3.71 3.93 4.18 4.53 5.00 5.27 5.39 5.31 5.13 5.04 4.95 4.82 4.71 4.73 4.79 4.78 4.47 4.16 3.98 3.71 3.45 3.34 3.19 2.95 2.84 2.79 2.83 2.50 2.27 1.95 1.70 1.75 1.74 1.67 1.65 1.60 1.61 1.72 1.73 1.68
3.04 3.31 3.50 3.76 4.22 4.74 5.39 6.16 6.46 6.21 5.82 5.61 5.29 5.22 5.02 4.79 4.74 4.76 4.48 4.21 3.99 3.82 3.64 3.42 3.33 3.24 2.97 2.85 2.87 3.02 2.75 2.43 2.15 1.93 1.73 1.64 1.65 1.68 1.62 1.58 1.60 1.68 1.67
2.74 3.18 3.59 4.03 4.62 5.27 5.82 6.28 6.50 6.37 6.11 5.83 5.39 5.02 4.64 4.31 4.12 4.00 3.88 3.63 3.49 3.38 3.23 3.06 3.05 3.02 2.91 2.70 2.63 2.49 2.41 2.27 2.22 2.05 1.83 1.66 1.63 1.66 1.62 1.55 1.56 1.63 1.68
2.68 3.14 3.63 4.09 4.75 5.24 5.70 6.04 6.24 6.26 6.14 5.77 5.10 4.48 4.08 3.75 3.49 3.22 2.99 2.87 2.86 2.80 2.61 2.42 2.40 2.39 2.38 2.31 2.27 2.15 2.08 2.02 1.98 1.92 1.86 1.78 1.71 1.59 1.51 1.49 1.48 1.50 1.56
2.59 3.08 3.42 3.76 4.45 5.12 5.59 5.92 6.16 6.12 5.88 5.25 4.56 4.03 3.69 3.40 3.12 2.86 2.70 2.51 2.41 2.30 2.15 1.98 1.91 1.90 1.93 1.94 1.98 1.98 1.86 1.80 1.77 1.81 1.73 1.66 1.63 1.56 1.48 1.42 1.38 1.38 1.44